When you browse on this site, cookies collect data to enhance your experience and personalize the content and advertising you see.
Visit our Privacy Policy to learn more. By continuing to use the site, you agree to this use of cookies and data.
  • Em Portugal
  • Lista de países
  • Para 7 dias
  • Temperatura da água
  • Mapas de satélite
  • Mapa do tempo
  • Widgets de tempo
  • user-avatar
    Iniciar Sessão

    Previsão horária em Costa Dourada

    Hoje, 24 Janeiro, Quinta-feira

    Tempo Temperatura Precipitação Vento Pressão Humidade
    00:00 +25°C° 0.1 mm 3 m/s 755 mmHg 88%
    01:00 +25°C° 0.1 mm 3 m/s 755 mmHg 88%
    02:00 +25°C° 0.5 mm 2 m/s 755 mmHg 89%
    03:00 +24°C° 0.5 mm 2 m/s 755 mmHg 91%
    04:00 +24°C° 0 mm 2 m/s 755 mmHg 91%
    05:00 +25°C° 0.5 mm 2 m/s 756 mmHg 89%
    06:00 +26°C° 0.5 mm 1 m/s 756 mmHg 86%
    07:00 +27°C° 0.5 mm 1 m/s 756 mmHg 84%
    08:00 +28°C° 0 mm 1 m/s 756 mmHg 77%
    09:00 +30°C° 0 mm 1 m/s 756 mmHg 70%
    10:00 +30°C° 0 mm 2 m/s 757 mmHg 66%
    11:00 +31°C° 0.1 mm 2 m/s 756 mmHg 63%
    12:00 +32°C° 0.1 mm 2 m/s 756 mmHg 60%
    13:00 +34°C° 0.1 mm 2 m/s 756 mmHg 57%
    14:00 +33°C° 0.2 mm 3 m/s 756 mmHg 59%
    15:00 +33°C° 0.2 mm 3 m/s 756 mmHg 60%
    16:00 +33°C° 0.2 mm 3 m/s 755 mmHg 62%
    17:00 +30°C° 0.1 mm 3 m/s 756 mmHg 68%
    18:00 +28°C° 0.1 mm 3 m/s 756 mmHg 73%
    19:00 +27°C° 0.1 mm 2 m/s 756 mmHg 79%
    20:00 +27°C° 0 mm 2 m/s 757 mmHg 80%
    21:00 +26°C° 0 mm 2 m/s 757 mmHg 82%
    22:00 +26°C° 0 mm 2 m/s 758 mmHg 83%
    23:00 +26°C° 0.1 mm 2 m/s 758 mmHg 85%

    Amanhã, 25 Janeiro, Sexta-feira

    Tempo Temperatura Precipitação Vento Pressão Humidade
    00:00 +26°C° 0.1 mm 1 m/s 758 mmHg 86%
    01:00 +25°C° 0.1 mm 1 m/s 758 mmHg 88%
    02:00 +25°C° 0.2 mm 1 m/s 757 mmHg 89%
    03:00 +25°C° 0.2 mm 1 m/s 757 mmHg 91%
    04:00 +23°C° 0.2 mm 0 m/s 757 mmHg 92%
    05:00 +23°C° 0.1 mm 0 m/s 757 mmHg 89%
    06:00 +24°C° 0.1 mm 0 m/s 758 mmHg 86%
    07:00 +25°C° 0.1 mm 0 m/s 758 mmHg 83%
    08:00 +28°C° 0.1 mm 1 m/s 758 mmHg 75%
    09:00 +30°C° 0.1 mm 2 m/s 758 mmHg 66%
    10:00 +33°C° 0.1 mm 3 m/s 757 mmHg 57%
    11:00 +33°C° 0 mm 3 m/s 757 mmHg 56%
    12:00 +33°C° 0 mm 3 m/s 757 mmHg 54%
    13:00 +34°C° 0 mm 4 m/s 757 mmHg 53%
    14:00 +33°C° 0 mm 4 m/s 756 mmHg 55%
    15:00 +33°C° 0 mm 4 m/s 756 mmHg 57%
    16:00 +32°C° 0 mm 4 m/s 755 mmHg 59%
    17:00 +30°C° 0 mm 4 m/s 756 mmHg 66%
    18:00 +28°C° 0 mm 3 m/s 756 mmHg 73%
    19:00 +27°C° 0 mm 3 m/s 756 mmHg 80%
    20:00 +26°C° 0 mm 3 m/s 757 mmHg 84%
    21:00 +26°C° 0 mm 3 m/s 757 mmHg 87%
    22:00 +25°C° 0 mm 3 m/s 758 mmHg 91%
    23:00 +25°C° 0.1 mm 3 m/s 757 mmHg 91%

    Depois de amanhã, 26 Janeiro, Sábado

    Tempo Temperatura Precipitação Vento Pressão Humidade
    00:00 +25°C° 0.1 mm 3 m/s 757 mmHg 92%
    01:00 +25°C° 0.1 mm 3 m/s 757 mmHg 92%
    02:00 +25°C° 0 mm 3 m/s 757 mmHg 92%
    03:00 +25°C° 0 mm 2 m/s 756 mmHg 92%
    04:00 +24°C° 0 mm 2 m/s 756 mmHg 93%
    05:00 +25°C° 0 mm 2 m/s 756 mmHg 90%
    06:00 +26°C° 0 mm 2 m/s 757 mmHg 87%
    07:00 +26°C° 0 mm 2 m/s 757 mmHg 84%
    08:00 +28°C° 0.1 mm 3 m/s 757 mmHg 76%
    09:00 +29°C° 0.1 mm 3 m/s 757 mmHg 69%
    10:00 +30°C° 0.1 mm 3 m/s 757 mmHg 61%
    11:00 +30°C° 0 mm 4 m/s 756 mmHg 61%
    12:00 +30°C° 0 mm 4 m/s 756 mmHg 60%
    13:00 +32°C° 0 mm 4 m/s 756 mmHg 59%
    14:00 +32°C° 0 mm 4 m/s 755 mmHg 59%
    15:00 +32°C° 0 mm 4 m/s 755 mmHg 58%
    16:00 +32°C° 0 mm 4 m/s 755 mmHg 57%
    17:00 +29°C° 0 mm 4 m/s 755 mmHg 64%
    18:00 +28°C° 0 mm 4 m/s 755 mmHg 70%
    19:00 +26°C° 0 mm 4 m/s 755 mmHg 77%
    20:00 +26°C° 0 mm 4 m/s 756 mmHg 80%
    21:00 +25°C° 0 mm 4 m/s 756 mmHg 84%
    22:00 +25°C° 0 mm 4 m/s 757 mmHg 87%
    23:00 +25°C° 0 mm 3 m/s 757 mmHg 86%

    27 Janeiro, Domingo

    Tempo Temperatura Precipitação Vento Pressão Humidade
    00:00 +25°C° 0 mm 3 m/s 756 mmHg 84%
    01:00 +25°C° 0 mm 3 m/s 756 mmHg 83%
    02:00 +25°C° 0 mm 3 m/s 756 mmHg 83%
    03:00 +25°C° 0 mm 3 m/s 755 mmHg 83%
    04:00 +25°C° 0 mm 3 m/s 755 mmHg 83%
    05:00 +26°C° 0 mm 3 m/s 756 mmHg 80%
    06:00 +26°C° 0 mm 3 m/s 756 mmHg 77%
    07:00 +27°C° 0 mm 4 m/s 756 mmHg 75%
    08:00 +28°C° 0 mm 4 m/s 756 mmHg 68%
    09:00 +30°C° 0 mm 4 m/s 756 mmHg 60%
    10:00 +32°C° 0 mm 4 m/s 757 mmHg 53%
    11:00 +33°C° 0 mm 4 m/s 756 mmHg 52%
    12:00 +33°C° 0 mm 4 m/s 756 mmHg 50%
    13:00 +34°C° 0 mm 5 m/s 755 mmHg 49%
    14:00 +33°C° 0 mm 5 m/s 755 mmHg 51%
    15:00 +33°C° 0 mm 4 m/s 755 mmHg 52%
    16:00 +32°C° 0 mm 4 m/s 755 mmHg 54%
    17:00 +30°C° 0 mm 4 m/s 755 mmHg 63%
    18:00 +28°C° 0 mm 4 m/s 756 mmHg 72%
    19:00 +27°C° 0 mm 4 m/s 756 mmHg 81%
    20:00 +27°C° 0 mm 4 m/s 756 mmHg 82%
    21:00 +26°C° 0 mm 4 m/s 757 mmHg 83%
    22:00 +26°C° 0 mm 4 m/s 757 mmHg 84%
    23:00 +26°C° 0 mm 4 m/s 757 mmHg 85%

    28 Janeiro, Segunda-feira

    Tempo Temperatura Precipitação Vento Pressão Humidade
    00:00 +26°C° 0 mm 3 m/s 757 mmHg 85%
    01:00 +26°C° 0 mm 3 m/s 757 mmHg 86%
    02:00 +25°C° 0 mm 3 m/s 757 mmHg 88%
    03:00 +24°C° 0 mm 2 m/s 757 mmHg 90%
    04:00 +24°C° 0 mm 2 m/s 757 mmHg 92%
    05:00 +25°C° 0 mm 1 m/s 757 mmHg 89%
    06:00 +26°C° 0 mm 1 m/s 758 mmHg 85%
    07:00 +26°C° 0 mm 1 m/s 758 mmHg 82%
    08:00 +28°C° 0 mm 2 m/s 758 mmHg 72%
    09:00 +30°C° 0 mm 2 m/s 758 mmHg 63%
    10:00 +33°C° 0 mm 3 m/s 758 mmHg 54%
    11:00 +33°C° 0 mm 3 m/s 758 mmHg 50%
    12:00 +34°C° 0 mm 3 m/s 757 mmHg 47%
    13:00 +35°C° 0 mm 4 m/s 757 mmHg 44%
    14:00 +34°C° 0 mm 4 m/s 756 mmHg 48%
    15:00 +33°C° 0 mm 4 m/s 756 mmHg 52%
    16:00 +33°C° 0 mm 4 m/s 756 mmHg 55%
    17:00 +30°C° 0 mm 4 m/s 756 mmHg 64%
    18:00 +28°C° 0 mm 4 m/s 757 mmHg 72%
    19:00 +27°C° 0 mm 3 m/s 757 mmHg 81%
    20:00 +26°C° 0 mm 3 m/s 758 mmHg 84%
    21:00 +25°C° 0 mm 3 m/s 758 mmHg 88%
    22:00 +25°C° 0 mm 3 m/s 759 mmHg 91%
    23:00 +25°C° 0.1 mm 3 m/s 759 mmHg 92%

    29 Janeiro, Terça-feira

    Tempo Temperatura Precipitação Vento Pressão Humidade
    00:00 +25°C° 0.1 mm 2 m/s 758 mmHg 92%
    01:00 +25°C° 0.1 mm 2 m/s 758 mmHg 92%
    02:00 +24°C° 0 mm 2 m/s 758 mmHg 92%
    03:00 +24°C° 0 mm 2 m/s 758 mmHg 91%
    04:00 +24°C° 0 mm 2 m/s 758 mmHg 91%
    05:00 +25°C° 0 mm 2 m/s 758 mmHg 86%
    06:00 +25°C° 0 mm 2 m/s 759 mmHg 81%
    07:00 +26°C° 0 mm 2 m/s 759 mmHg 76%
    08:00 +28°C° 0 mm 2 m/s 759 mmHg 67%
    09:00 +29°C° 0 mm 3 m/s 759 mmHg 58%
    10:00 +31°C° 0 mm 3 m/s 759 mmHg 48%
    11:00 +31°C° 0 mm 3 m/s 758 mmHg 47%
    12:00 +33°C° 0 mm 3 m/s 758 mmHg 47%
    13:00 +33°C° 0 mm 4 m/s 757 mmHg 46%
    14:00 +33°C° 0 mm 4 m/s 757 mmHg 47%
    15:00 +32°C° 0 mm 4 m/s 757 mmHg 48%
    16:00 +32°C° 0 mm 4 m/s 756 mmHg 49%
    17:00 +29°C° 0 mm 4 m/s 757 mmHg 59%
    18:00 +28°C° 0 mm 4 m/s 757 mmHg 69%
    19:00 +26°C° 0 mm 3 m/s 758 mmHg 78%
    20:00 +26°C° 0.1 mm 3 m/s 758 mmHg 82%
    21:00 +26°C° 0.1 mm 4 m/s 758 mmHg 86%
    22:00 +26°C° 0.1 mm 4 m/s 759 mmHg 89%
    23:00 +25°C° 0 mm 4 m/s 758 mmHg 89%
    Mostrar mais